When you browse on this site, cookies collect data to enhance your experience and personalize the content and advertising you see.
Visit our Privacy Policy to learn more. By continuing to use the site, you agree to this use of cookies and data.
  • In Hungary
  • List of Countries
  • For 7 days
  • Water Temperature
  • Satellite Maps
  • Weather Map
  • News
  • Weather Widgets
  • user-avatar
    Login

    Hourly Weather Gniewkowice

    Today, 9 December, Sunday

    Time Temperature Precipitation Wind Pressure Humidity
    00:00 +2°C° 0 mm 5 mps 730 mmHg 82%
    01:00 +2°C° 0 mm 5 mps 729 mmHg 82%
    02:00 +2°C° 0 mm 5 mps 728 mmHg 82%
    03:00 +2°C° 0 mm 6 mps 727 mmHg 82%
    04:00 +2°C° 0 mm 6 mps 726 mmHg 82%
    05:00 +2°C° 1 mm 6 mps 725 mmHg 80%
    06:00 +3°C° 1 mm 7 mps 725 mmHg 77%
    07:00 +3°C° 0 mm 7 mps 724 mmHg 76%
    08:00 +3°C° 0.4 mm 7 mps 724 mmHg 76%
    09:00 +4°C° 0.4 mm 7 mps 724 mmHg 76%
    10:00 +4°C° 0.4 mm 8 mps 723 mmHg 75%
    11:00 +4°C° 0.4 mm 7 mps 723 mmHg 76%
    12:00 +5°C° 0.4 mm 7 mps 723 mmHg 76%
    13:00 +5°C° 0 mm 6 mps 724 mmHg 74%
    14:00 +5°C° 0.2 mm 6 mps 724 mmHg 75%
    15:00 +5°C° 0.2 mm 5 mps 724 mmHg 77%
    16:00 +5°C° 0.2 mm 5 mps 724 mmHg 78%
    17:00 +5°C° 0.2 mm 5 mps 725 mmHg 78%
    18:00 +5°C° 0.2 mm 5 mps 725 mmHg 79%
    19:00 +4°C° 0.2 mm 4 mps 725 mmHg 80%
    20:00 +4°C° 0.1 mm 4 mps 725 mmHg 81%
    21:00 +4°C° 0.1 mm 4 mps 726 mmHg 82%
    22:00 +4°C° 0.1 mm 4 mps 726 mmHg 83%
    23:00 +4°C° 0.2 mm 4 mps 726 mmHg 83%

    Tomorrow, 10 December, Monday

    Time Temperature Precipitation Wind Pressure Humidity
    00:00 +4°C° 0.2 mm 4 mps 727 mmHg 83%
    01:00 +4°C° 0.2 mm 4 mps 727 mmHg 83%
    02:00 +3°C° 0.2 mm 5 mps 727 mmHg 82%
    03:00 +2°C° 0.2 mm 5 mps 728 mmHg 80%
    04:00 +2°C° 0.2 mm 5 mps 728 mmHg 79%
    05:00 +2°C° 0.1 mm 5 mps 729 mmHg 77%
    06:00 +2°C° 0.1 mm 6 mps 729 mmHg 76%
    07:00 +1°C° 0.1 mm 6 mps 729 mmHg 75%
    08:00 +2°C° 0.1 mm 7 mps 730 mmHg 73%
    09:00 +2°C° 0.1 mm 7 mps 731 mmHg 72%
    10:00 +2°C° 0.1 mm 7 mps 731 mmHg 71%
    11:00 +2°C° 0.1 mm 7 mps 731 mmHg 69%
    12:00 +2°C° 0.1 mm 7 mps 732 mmHg 68%
    13:00 +2°C° 0.1 mm 7 mps 732 mmHg 67%
    14:00 +2°C° 0.1 mm 6 mps 732 mmHg 69%
    15:00 +1°C° 0.1 mm 5 mps 733 mmHg 72%
    16:00 0°C° 0.1 mm 4 mps 733 mmHg 74%
    17:00 0°C° 0.1 mm 4 mps 733 mmHg 76%
    18:00 0°C° 0.1 mm 4 mps 733 mmHg 77%
    19:00 -1°C° 0.1 mm 4 mps 733 mmHg 79%
    20:00 -1°C° 0 mm 4 mps 733 mmHg 79%
    21:00 0°C° 0 mm 3 mps 734 mmHg 80%
    22:00 -1°C° 0 mm 3 mps 734 mmHg 81%
    23:00 -1°C° 0.1 mm 3 mps 734 mmHg 81%

    Day after tomorrow, 11 December, Tuesday

    Time Temperature Precipitation Wind Pressure Humidity
    00:00 0°C° 0.1 mm 3 mps 734 mmHg 82%
    01:00 0°C° 0.1 mm 3 mps 734 mmHg 83%
    02:00 0°C° 0.2 mm 3 mps 733 mmHg 84%
    03:00 0°C° 0.2 mm 3 mps 733 mmHg 84%
    04:00 0°C° 0.2 mm 3 mps 733 mmHg 85%
    05:00 0°C° 0.2 mm 3 mps 733 mmHg 85%
    06:00 0°C° 0.2 mm 3 mps 733 mmHg 85%
    07:00 0°C° 0.2 mm 3 mps 733 mmHg 85%
    08:00 -1°C° 0.3 mm 4 mps 733 mmHg 84%
    09:00 0°C° 0.3 mm 4 mps 733 mmHg 83%
    10:00 0°C° 0.3 mm 4 mps 733 mmHg 82%
    11:00 0°C° 0.4 mm 4 mps 733 mmHg 82%
    12:00 +1°C° 0.4 mm 4 mps 733 mmHg 82%
    13:00 +1°C° 0.4 mm 4 mps 732 mmHg 83%
    14:00 0°C° 0.4 mm 4 mps 732 mmHg 84%
    15:00 +1°C° 0.4 mm 3 mps 733 mmHg 86%
    16:00 0°C° 0.4 mm 3 mps 733 mmHg 88%
    17:00 0°C° 0.3 mm 3 mps 733 mmHg 89%
    18:00 0°C° 0.3 mm 3 mps 733 mmHg 90%
    19:00 0°C° 0.3 mm 3 mps 733 mmHg 91%
    20:00 0°C° 0.4 mm 3 mps 734 mmHg 91%
    21:00 -1°C° 0.4 mm 3 mps 734 mmHg 92%
    22:00 -1°C° 0.4 mm 3 mps 734 mmHg 92%
    23:00 -1°C° 0.2 mm 3 mps 735 mmHg 93%

    12 December, Wednesday

    Time Temperature Precipitation Wind Pressure Humidity
    00:00 -1°C° 0.2 mm 3 mps 735 mmHg 93%
    01:00 -1°C° 0.2 mm 3 mps 735 mmHg 94%
    02:00 -1°C° 0.3 mm 3 mps 736 mmHg 94%
    03:00 -1°C° 0.3 mm 3 mps 736 mmHg 95%
    04:00 -1°C° 0.3 mm 3 mps 736 mmHg 95%
    05:00 -1°C° 0.4 mm 3 mps 737 mmHg 95%
    06:00 -1°C° 0.4 mm 3 mps 737 mmHg 95%
    07:00 -1°C° 0.4 mm 3 mps 737 mmHg 95%
    08:00 -1°C° 0.2 mm 3 mps 738 mmHg 94%
    09:00 -1°C° 0.2 mm 3 mps 738 mmHg 93%
    10:00 -1°C° 0.2 mm 3 mps 739 mmHg 93%
    11:00 0°C° 0.1 mm 3 mps 739 mmHg 92%
    12:00 0°C° 0.1 mm 3 mps 739 mmHg 92%
    13:00 0°C° 0.1 mm 3 mps 739 mmHg 92%
    14:00 0°C° 0.1 mm 3 mps 739 mmHg 93%
    15:00 -1°C° 0.1 mm 2 mps 739 mmHg 93%
    16:00 -1°C° 0.1 mm 2 mps 739 mmHg 94%
    17:00 -1°C° 0 mm 2 mps 739 mmHg 94%
    18:00 -2°C° 0 mm 2 mps 740 mmHg 94%
    19:00 0°C° 0 mm 1 mps 740 mmHg 95%
    20:00 0°C° 0 mm 1 mps 740 mmHg 95%
    21:00 -1°C° 0 mm 1 mps 740 mmHg 95%
    22:00 -1°C° 0 mm 1 mps 740 mmHg 95%
    23:00 -1°C° 0 mm 1 mps 740 mmHg 95%

    13 December, Thursday

    Time Temperature Precipitation Wind Pressure Humidity
    00:00 -2°C° 0 mm 1 mps 740 mmHg 95%
    01:00 -2°C° 0 mm 1 mps 740 mmHg 94%
    02:00 -2°C° 0 mm 1 mps 740 mmHg 94%
    03:00 -2°C° 0 mm 1 mps 740 mmHg 93%
    04:00 -2°C° 0 mm 1 mps 740 mmHg 93%
    05:00 -2°C° 0 mm 1 mps 740 mmHg 93%
    06:00 -2°C° 0 mm 1 mps 740 mmHg 93%
    07:00 -2°C° 0 mm 1 mps 740 mmHg 92%
    08:00 -1°C° 0 mm 1 mps 740 mmHg 92%
    09:00 -1°C° 0 mm 1 mps 740 mmHg 91%
    10:00 0°C° 0 mm 1 mps 740 mmHg 90%
    11:00 0°C° 0 mm 1 mps 740 mmHg 88%
    12:00 0°C° 0 mm 1 mps 740 mmHg 87%
    13:00 +1°C° 0 mm 1 mps 739 mmHg 85%
    14:00 0°C° 0 mm 1 mps 739 mmHg 87%
    15:00 0°C° 0 mm 1 mps 739 mmHg 88%
    16:00 -1°C° 0 mm 1 mps 739 mmHg 90%
    17:00 -1°C° 0 mm 1 mps 739 mmHg 90%
    18:00 -1°C° 0 mm 1 mps 739 mmHg 90%
    19:00 -1°C° 0 mm 1 mps 739 mmHg 91%
    20:00 -2°C° 0 mm 1 mps 739 mmHg 91%
    21:00 -3°C° 0 mm 0 mps 739 mmHg 91%
    22:00 -4°C° 0 mm 0 mps 739 mmHg 91%
    23:00 -4°C° 0 mm 0 mps 739 mmHg 91%

    14 December, Friday

    Time Temperature Precipitation Wind Pressure Humidity
    00:00 -4°C° 0 mm 0 mps 739 mmHg 91%
    01:00 -5°C° 0 mm 0 mps 738 mmHg 91%
    02:00 -5°C° 0 mm 0 mps 738 mmHg 90%
    03:00 -5°C° 0 mm 0 mps 738 mmHg 90%
    04:00 -5°C° 0 mm 0 mps 738 mmHg 90%
    05:00 -5°C° 0 mm 0 mps 738 mmHg 90%
    06:00 -5°C° 0 mm 0 mps 739 mmHg 89%
    07:00 -5°C° 0 mm 0 mps 739 mmHg 89%
    08:00 -4°C° 0 mm 0 mps 739 mmHg 87%
    09:00 -3°C° 0 mm 0 mps 739 mmHg 85%
    10:00 -3°C° 0 mm 0 mps 739 mmHg 83%
    11:00 -2°C° 0 mm 0 mps 739 mmHg 81%
    12:00 0°C° 0 mm 1 mps 739 mmHg 79%
    13:00 0°C° 0 mm 1 mps 739 mmHg 78%
    14:00 -1°C° 0 mm 1 mps 739 mmHg 81%
    15:00 -2°C° 0 mm 1 mps 739 mmHg 84%
    16:00 -2°C° 0 mm 1 mps 739 mmHg 87%
    17:00 -3°C° 0 mm 1 mps 738 mmHg 88%
    18:00 -3°C° 0 mm 1 mps 738 mmHg 88%
    19:00 -3°C° 0 mm 1 mps 738 mmHg 89%
    20:00 -3°C° 0 mm 1 mps 738 mmHg 88%
    21:00 -3°C° 0 mm 1 mps 738 mmHg 88%
    22:00 -3°C° 0 mm 1 mps 738 mmHg 87%
    23:00 -4°C° 0 mm 1 mps 738 mmHg 87%
    Show more